Starlink 4445

operational
NORAD ID: 53474 Int'l Des: 2022-099 Owner: SPXS Country: US Constellation: starlink
LEOCIRCULARRETROGRADESSO

About Starlink 4445

Description loading...

Live Position

Loading 3D Globe...

Upcoming Passes

Altitude History

Altitude vs Time

uPlot chart will show altitude changes over time

Two-Line Element Set

1 53474U 22099K 25259.27644869 -.00000243 00000-0 -14385-4 0 9990
2 53474 97.6021 19.4634 0002203 90.3496 269.7980 15.01258397169812
Epoch: Sep 16, 2025 • Age: 6 hours

Current Status

Altitude 592.8 km
Velocity 7.56 km/s
Sub-Earth Point -80.97°S, 41.83°W
Launch Date Aug 12, 2022
Age 3 years
Type internet

Technical Details

Classification Payload
Mass 300.00 kg
Dry Mass 275.00 kg
Total Mass 300.00 kg
Length 0.20 m
Diameter 2.80 m
Span 9.00 m
Shape Box + pan
Manufacturer SPXS
Bus Type Starlink
Phase Status In Orbit
Owner/State SPXS/US

Large Constellations

Loading constellations...